Location: Unspecified
(43.3830°N, 0.0000°E)
Time: 01:39:46
(UTC+00:00)

Transit 2A - Pass Details

Date: 25 June 2019
Orbit: 600 x 959 km, 66.7° (Epoch: 14 October)

Event Time Altitude Azimuth Distance (km) Brightness Sun altitude
Exits shadow 00:28:35 22° 247° (WSW) 1,947 7.8 -22.9°
Maximum altitude 00:32:21 46° 309° (NW) 1,259 7.2 -22.9°
Drops below altitude 10° 00:38:19 10° 22° (NNE) 2,631 9.8 -22.7°
Sets 00:40:55 0° 28° (NNE) 3,538 10.7 -22.6°
